[[{"header":{"parameterUnit":"m.s-1","parameterCategory":1,"la1":30.2991,"la2":30.254,"lo1":-89.0895,"lo2":-89.0444,"dx":0.0017,"dy":0.0017,"nx":28,"ny":28,"refTime":"2022-11-15T15:00:00:Z","depth":0,"parameterNumber":2,"parameterNumberName":"U-component_of_WINDS"},"data":[0,0,0,0,0,0,0,0,0,0,0,0,0,0,0,0,0,0,0,0,0,0,0,0,0,0,0,0,0,0,0,0,0,0,0,0,0,0,0,0,0,0,0,0,0,0,0,0,0,0,0,0,0,0,0,0,0,0,-1.1522,-1.1522,0,-1.1572,-1.1573,-1.1573,-1.1498,-1.1496,-1.1493,-1.1491,-1.1546,-1.1549,-1.1553,0,0,0,0,0,0,0,0,0,0,0,0,0,-1.1363,-1.1366,-1.1522,-1.1522,-1.1523,-1.1572,-1.1573,-1.1573,-1.1499,-1.1496,-1.1493,-1.149,-1.1544,-1.1549,-1.1554,0,0,0,0,0,0,0,0,0,0,0,0,0,-1.1425,-1.1367,-1.1522,-1.1492,-1.1489,-1.1572,-1.1573,-1.1574,-1.15,-1.1496,-1.1492,-1.1488,-1.1543,-1.1549,-1.1554,-1.1669,0,0,-1.1572,-1.1575,0,0,0,0,0,0,0,0,-1.1421,-1.1431,-1.1495,-1.1494,-1.1491,-1.1525,-1.1537,-1.1606,-1.1501,-1.1496,-1.1491,-1.1486,-1.1542,-1.1548,-1.1566,-1.1672,-1.1674,-1.1573,-1.1576,-1.1579,-1.1581,0,0,0,0,0,0,0,-1.1417,-1.1428,-1.1542,-1.1496,-1.1494,-1.1476,-1.1481,-1.1549,-1.1541,-1.1496,-1.1491,-1.1497,-1.154,-1.1561,-1.1567,-1.1675,-1.1573,-1.1578,-1.1581,-1.1584,-1.1878,-1.1882,0,0,0,0,0,0,-1.1416,-1.1425,-1.154,-1.1543,-1.1446,-1.1482,-1.1487,-1.1518,-1.154,-1.1539,-1.1501,-1.1494,-1.1552,-1.156,-1.1568,-1.1706,-1.1579,-1.1584,-1.1588,-1.1874,-1.1879,-1.1884,0,0,0,0,0,0,-1.1413,-1.1427,-1.1538,-1.1483,-1.1495,-1.1489,-1.1525,-1.1521,-1.1541,-1.1543,-1.1541,-1.1523,-1.155,-1.156,-1.1645,-1.1706,-1.1587,-1.1592,-1.1869,-1.1875,-1.1881,-1.198,0,0,0,0,0,0,-1.1409,-1.1426,-1.147,-1.1484,-1.1499,-1.1613,-1.1528,-1.1525,-1.1551,-1.1543,-1.1564,-1.1563,-1.1547,-1.1636,-1.1651,-1.1712,-1.1597,-1.1863,-1.1872,-1.1879,-1.1972,-1.1989,-1.2004,0,0,0,0,0,-1.1403,-1.1496,-1.1472,-1.1487,-1.1553,-1.1617,-1.1625,-1.1604,-1.1557,-1.1601,-1.1601,-1.1563,-1.1696,-1.1646,-1.1661,-1.1726,-1.1859,-1.1869,-1.1879,-1.1964,-1.1986,-1.2004,0,0,0,0,0,0,-1.1491,-1.1498,-1.1471,-1.1572,-1.1594,-1.1604,-1.1659,-1.1628,-1.1665,-1.1656,-1.1629,-1.1634,-1.1725,-1.1733,-1.1676,-1.1838,-1.177,-1.1783,-1.183,-1.185,-1.1867,-1.1864,-1.1602,0,0,0,0,0,-1.1522,-1.1573,-1.1576,-1.1664,-1.1676,-1.1666,-1.1693,-1.1675,-1.1697,-1.1707,-1.1714,-1.1739,-1.1786,-1.1818,-1.1862,-1.1971,-1.1975,-1.2023,-1.2039,-1.2053,-1.2066,-1.2125,-1.2146,-1.1915,-1.1915,-1.1915,0,0,-1.1587,-1.1596,-1.1631,-1.1682,-1.1697,-1.1752,-1.1675,-1.1735,-1.1776,-1.1717,-1.1797,-1.1803,-1.1828,-1.1926,-1.1969,-1.1935,-1.2129,-1.2065,-1.2076,-1.2081,-1.2137,-1.2159,-1.2178,-1.1922,-1.1921,-1.192,0,0,-1.1733,-1.1745,-1.182,-1.1836,-1.186,-1.1851,-1.1869,-1.1884,-1.1885,-1.1965,-1.1922,-1.1969,-1.2051,-1.2071,-1.2092,-1.2244,-1.221,-1.2258,-1.2346,-1.2404,-1.2422,-1.2438,-1.2494,-1.2514,-1.227,-1.2271,-1.2271,0,-1.1811,-1.189,-1.1863,-1.1926,-1.1951,-1.1897,-1.1974,-1.1991,-1.2028,-1.2047,-1.2007,-1.2109,-1.2122,-1.2224,-1.2261,-1.2279,-1.23,-1.2258,-1.2421,-1.2437,-1.2452,-1.2505,-1.2526,-1.2276,-1.2276,-1.2275,-1.2275,0,-1.1986,-1.2041,-1.2099,-1.2135,-1.2166,-1.2236,-1.2219,-1.2253,-1.2231,-1.2227,-1.2309,-1.2322,-1.2368,-1.239,-1.237,-1.2489,-1.2468,-1.2425,-1.2357,-1.248,-1.253,-1.255,-1.2285,-1.2283,-1.2281,-1.228,0,0,-1.2193,-1.221,-1.2233,-1.2248,-1.2269,-1.2312,-1.2379,-1.2422,-1.2453,-1.2479,-1.2536,-1.2605,-1.2566,-1.2589,-1.257,-1.2621,-1.2742,-1.2572,-1.2572,-1.2605,-1.2876,-1.291,-1.2934,-1.2718,-1.2721,-1.2724,-1.2874,0,-1.234,-1.2455,-1.2432,-1.2545,-1.2597,-1.2545,-1.2604,-1.2623,-1.2621,-1.2664,-1.2661,-1.2712,-1.2655,-1.2669,-1.2717,-1.2717,-1.2796,-1.2705,-1.2772,-1.2775,-1.2771,-1.2959,-1.2995,-1.3137,-1.2893,-1.2896,-1.2899,0,-1.2529,-1.2561,-1.268,-1.2692,-1.2712,-1.2765,-1.2803,-1.2845,-1.2865,-1.286,-1.2886,-1.2856,-1.2923,-1.2852,-1.2944,-1.2883,-1.2908,-1.2912,-1.2917,-1.2926,-1.2847,-1.2975,-1.3181,-1.3203,-1.2929,-1.2926,-1.2924,0,-1.267,-1.2743,-1.2824,-1.2838,-1.2854,-1.2893,-1.2901,-1.2917,-1.2945,-1.2977,-1.2995,-1.3035,-1.3058,-1.309,-1.3073,-1.3022,-1.3169,-1.3096,-1.3168,-1.3169,-1.3204,-1.3203,-1.342,-1.3216,-1.3215,-1.3215,-1.3215,0,-1.2839,-1.2915,-1.2888,-1.2938,-1.302,-1.2991,-1.3074,-1.3076,-1.3091,-1.3141,-1.3098,-1.3146,-1.3118,-1.3164,-1.315,-1.323,-1.324,-1.3239,-1.3235,-1.3245,-1.3245,-1.3263,-1.3254,-1.3221,-1.3219,-1.3218,-1.3217,0,-1.3014,-1.2998,-1.3083,-1.3089,-1.3093,-1.3154,-1.316,-1.3207,-1.3199,-1.3263,-1.3276,-1.3266,-1.3318,-1.3302,-1.3358,-1.3349,-1.3451,-1.3432,-1.3444,-1.3441,-1.3515,-1.3509,-1.3754,-1.3785,-1.3558,-1.356,-1.3562,0,-1.3124,-1.3181,-1.3193,-1.3222,-1.3234,-1.3282,-1.3309,-1.3282,-1.3313,-1.3339,-1.3383,-1.343,-1.3467,-1.3552,-1.355,-1.3593,-1.3577,-1.366,-1.3584,-1.3592,-1.3582,-1.358,-1.3586,-1.3677,-1.3679,-1.3681,-1.3683,0,-1.3323,-1.3312,-1.3352,-1.339,-1.3424,-1.3452,-1.3477,-1.3504,-1.3478,-1.3514,-1.3566,-1.3594,-1.365,-1.3699,-1.3737,-1.3746,-1.3712,-1.3706,-1.3726,-1.3738,-1.3743,-1.3744,-1.3489,-1.3702,-1.37,-1.3699,-1.3698,-1.3697,-1.347,-1.3518,-1.3534,-1.3581,-1.3596,-1.362,-1.3664,-1.3661,-1.3704,-1.3747,-1.3728,-1.3788,-1.3806,-1.3853,-1.3867,-1.3914,-1.3882,-1.391,-1.3918,-1.3926,-1.3936,-1.3733,-1.392,-1.392,-1.3919,-1.3919,-1.3918,0,-1.3669,-1.3676,-1.3719,-1.3754,-1.3791,-1.3752,-1.3777,-1.381,-1.3863,-1.3882,-1.3919,-1.3978,-1.4024,-1.4025,-1.4067,-1.4105,-1.409,-1.4117,-1.4116,-1.4119,-1.3961,-1.3941,-1.4129,-1.4129,-1.4129,-1.4128,-1.4128,-1.4128,-1.3777,-1.3856,-1.3847,-1.3933,-1.394,-1.3997,-1.4015,-1.4037,-1.4052,-1.412,-1.4158,-1.4157,-1.4169,-1.4212,-1.4252,-1.4251,-1.427,-1.4304,-1.4298,-1.4151,-1.413,-1.411,-1.4091,-1.4308,-1.4308,-1.4452,-1.4453,-1.4454]},{"header":{"parameterUnit":"m.s-1","parameterCategory":1,"la1":30.2991,"la2":30.254,"lo1":-89.0895,"lo2":-89.0444,"dx":0.0017,"dy":0.0017,"nx":28,"ny":28,"refTime":"2022-11-15T15:00:00:Z","depth":0,"parameterNumber":3,"parameterNumberName":"V-component_of_WINDS"},"data":[0,0,0,0,0,0,0,0,0,0,0,0,0,0,0,0,0,0,0,0,0,0,0,0,0,0,0,0,0,0,0,0,0,0,0,0,0,0,0,0,0,0,0,0,0,0,0,0,0,0,0,0,0,0,0,0,0,0,-6.0546,-6.0547,0,-6.0685,-6.0686,-6.0688,-6.0611,-6.0607,-6.0604,-6.06,-6.0738,-6.0746,-6.0753,0,0,0,0,0,0,0,0,0,0,0,0,0,-6.0209,-6.0216,-6.0545,-6.0547,-6.0549,-6.0684,-6.0686,-6.0688,-6.0612,-6.0607,-6.0603,-6.0598,-6.0736,-6.0745,-6.0753,0,0,0,0,0,0,0,0,0,0,0,0,0,-6.0352,-6.0218,-6.0545,-6.0527,-6.0527,-6.0684,-6.0686,-6.0689,-6.0613,-6.0607,-6.0601,-6.0596,-6.0733,-6.0744,-6.0755,-6.0936,0,0,-6.0788,-6.0792,0,0,0,0,0,0,0,0,-6.0344,-6.0365,-6.0528,-6.0529,-6.0529,-6.0625,-6.0618,-6.0771,-6.0614,-6.058,-6.06,-6.0593,-6.0705,-6.0718,-6.0756,-6.0942,-6.0948,-6.0789,-6.0795,-6.08,-6.0803,0,0,0,0,0,0,0,-6.0334,-6.0358,-6.06,-6.0531,-6.0531,-6.0511,-6.0525,-6.0647,-6.0673,-6.0583,-6.0578,-6.0595,-6.0704,-6.0746,-6.0759,-6.095,-6.0788,-6.0798,-6.0805,-6.0809,-6.1289,-6.1295,0,0,0,0,0,0,-6.0326,-6.035,-6.0596,-6.0605,-6.0421,-6.0521,-6.0537,-6.06,-6.0671,-6.0677,-6.06,-6.0591,-6.073,-6.0746,-6.0764,-6.0979,-6.08,-6.081,-6.0816,-6.1283,-6.129,-6.1297,0,0,0,0,0,0,-6.0319,-6.0349,-6.059,-6.0476,-6.0505,-6.0533,-6.0604,-6.0606,-6.0647,-6.0684,-6.0688,-6.0639,-6.0726,-6.0748,-6.0893,-6.0983,-6.0815,-6.0825,-6.1275,-6.1285,-6.1294,-6.1413,0,0,0,0,0,0,-6.031,-6.0347,-6.0417,-6.0478,-6.0512,-6.072,-6.061,-6.0612,-6.0667,-6.0657,-6.0722,-6.0727,-6.0724,-6.0877,-6.0904,-6.0995,-6.0833,-6.1268,-6.128,-6.1291,-6.1401,-6.1425,-6.1446,0,0,0,0,0,-6.0298,-6.0445,-6.0421,-6.0451,-6.0601,-6.0725,-6.0744,-6.0739,-6.0674,-6.0745,-6.0768,-6.0725,-6.0969,-6.0893,-6.0922,-6.1018,-6.1262,-6.1276,-6.129,-6.1391,-6.1421,-6.1446,0,0,0,0,0,0,-6.0393,-6.0453,-6.0427,-6.0598,-6.0657,-6.0712,-6.0801,-6.077,-6.0848,-6.0835,-6.0823,-6.0839,-6.099,-6.1018,-6.0932,-6.1196,-6.1105,-6.1126,-6.1172,-6.12,-6.1222,-6.1212,-6.0842,0,0,0,0,0,-6.0434,-6.0531,-6.0577,-6.0724,-6.0755,-6.0773,-6.0827,-6.0818,-6.0878,-6.0902,-6.0936,-6.0995,-6.1084,-6.1144,-6.1228,-6.1405,-6.1417,-6.1484,-6.1507,-6.1525,-6.1543,-6.1637,-6.1667,-6.1343,-6.1343,-6.1343,0,0,-6.0519,-6.0563,-6.0626,-6.0744,-6.0789,-6.0888,-6.0794,-6.0904,-6.0977,-6.0918,-6.1057,-6.1084,-6.1149,-6.131,-6.1382,-6.1338,-6.1635,-6.1543,-6.1557,-6.1565,-6.1654,-6.1685,-6.1712,-6.1353,-6.1351,-6.135,0,0,-6.0725,-6.0769,-6.0896,-6.0942,-6.1011,-6.1022,-6.1052,-6.1112,-6.1128,-6.1267,-6.1225,-6.131,-6.1466,-6.1513,-6.1558,-6.178,-6.1743,-6.1808,-6.1925,-6.2017,-6.2042,-6.2065,-6.2143,-6.2172,-6.1825,-6.1826,-6.1826,0,-6.0822,-6.0972,-6.0964,-6.1077,-6.113,-6.1081,-6.1208,-6.1253,-6.1346,-6.1383,-6.1332,-6.1525,-6.1565,-6.1736,-6.179,-6.1828,-6.1861,-6.1801,-6.2039,-6.2062,-6.2083,-6.2158,-6.2187,-6.1833,-6.1832,-6.1832,-6.1831,0,-6.1087,-6.1192,-6.1285,-6.1377,-6.144,-6.1559,-6.1568,-6.1632,-6.1617,-6.1632,-6.1774,-6.182,-6.1913,-6.1952,-6.1938,-6.2121,-6.2091,-6.204,-6.1949,-6.2121,-6.2191,-6.222,-6.1844,-6.1841,-6.1839,-6.1837,0,0,-6.1358,-6.1444,-6.1478,-6.1519,-6.159,-6.167,-6.1786,-6.1878,-6.1933,-6.1997,-6.2094,-6.2225,-6.2178,-6.2229,-6.2219,-6.23,-6.2472,-6.2238,-6.2239,-6.228,-6.2675,-6.2713,-6.2746,-6.2447,-6.2452,-6.2457,-6.2669,0,-6.1569,-6.1774,-6.1769,-6.1959,-6.2054,-6.2009,-6.211,-6.2164,-6.2181,-6.2263,-6.228,-6.2374,-6.2305,-6.2335,-6.2413,-6.2435,-6.2551,-6.2419,-6.2535,-6.2539,-6.2521,-6.2783,-6.2824,-6.3023,-6.2696,-6.2701,-6.2704,0,-6.1843,-6.1918,-6.2118,-6.2174,-6.2214,-6.2305,-6.2388,-6.2467,-6.2526,-6.2533,-6.2589,-6.2566,-6.2682,-6.2587,-6.2745,-6.2656,-6.2703,-6.272,-6.2728,-6.2739,-6.2633,-6.2801,-6.3086,-6.3116,-6.2748,-6.2744,-6.2741,0,-6.202,-6.2171,-6.2309,-6.2345,-6.2415,-6.248,-6.2511,-6.2565,-6.262,-6.2692,-6.2727,-6.2811,-6.2857,-6.2921,-6.2921,-6.2852,-6.3081,-6.2986,-6.3088,-6.3088,-6.3139,-6.3136,-6.3435,-6.3169,-6.3169,-6.3168,-6.3168,0,-6.2256,-6.238,-6.239,-6.2475,-6.2612,-6.2604,-6.2739,-6.2764,-6.2812,-6.2899,-6.2864,-6.2947,-6.2942,-6.3025,-6.3025,-6.3156,-6.3176,-6.3184,-6.3182,-6.3188,-6.3187,-6.3218,-6.3204,-6.3176,-6.3174,-6.3173,-6.3171,0,-6.2478,-6.249,-6.2637,-6.2691,-6.2707,-6.2805,-6.285,-6.293,-6.2943,-6.3055,-6.3081,-6.3101,-6.3198,-6.3203,-6.3314,-6.3314,-6.3472,-6.3456,-6.3453,-6.345,-6.3552,-6.3542,-6.3882,-6.3926,-6.3632,-6.3634,-6.3637,0,-6.2628,-6.2722,-6.2786,-6.2843,-6.2878,-6.2971,-6.3026,-6.3022,-6.3081,-6.3155,-6.3226,-6.3318,-6.3393,-6.3548,-6.3572,-6.3656,-6.364,-6.3754,-6.3653,-6.3654,-6.3642,-6.3636,-6.3645,-6.3774,-6.3777,-6.378,-6.3782,0,-6.2893,-6.2894,-6.2976,-6.3062,-6.3129,-6.3196,-6.3257,-6.3305,-6.3307,-6.3375,-6.3474,-6.3531,-6.3644,-6.3737,-6.3818,-6.3848,-6.3816,-6.3813,-6.3841,-6.3847,-6.3842,-6.3846,-6.3507,-6.3806,-6.3803,-6.3801,-6.38,-6.3799,-6.3083,-6.3164,-6.3222,-6.3315,-6.336,-6.3418,-6.3496,-6.3519,-6.3602,-6.3694,-6.3685,-6.3794,-6.3849,-6.3955,-6.3992,-6.4076,-6.4037,-6.4078,-6.4088,-6.4098,-6.4109,-6.3828,-6.4091,-6.409,-6.4089,-6.4089,-6.4088,0,-6.3346,-6.338,-6.3466,-6.3553,-6.3626,-6.3589,-6.3655,-6.3718,-6.3815,-6.3869,-6.3943,-6.4055,-6.4144,-6.4174,-6.426,-6.4321,-6.4308,-6.4344,-6.4339,-6.4347,-6.4139,-6.4106,-6.4353,-6.4353,-6.4353,-6.4353,-6.4353,-6.4353,-6.3491,-6.3627,-6.3634,-6.3791,-6.3823,-6.3931,-6.3972,-6.4024,-6.4067,-6.4195,-6.4269,-6.4288,-6.4333,-6.4421,-6.45,-6.4507,-6.454,-6.4582,-6.4582,-6.4388,-6.4361,-6.4336,-6.4305,-6.4589,-6.459,-6.4783,-6.4784,-6.4786]}]]